Location: Balaclava NSW 2575, Australia
(34.4510°S, 150.4953°E)
Time: 21:22:14
(UTC+10:00)

Hubble Space Telescope - Pass Details

Date: 20 May 2021
Orbit: 535 x 539 km, 28.5° (Epoch: 19 June)

Event Time Altitude Azimuth Distance (km) Brightness Sun altitude
Rises 17:31:16 0° 297° (WNW) 2,682 6.8 -6.6°
Reaches altitude 10° 17:33:43 10° 307° (NW) 1,793 4.9 -7.1°
Maximum altitude 17:37:23 30° 9° (N) 972 2.2 -7.8°
Drops below altitude 10° 17:41:04 10° 71° (ENE) 1,799 3.0 -8.5°
Enters shadow 17:41:47 - 75° (ENE) 2,055 3.2 -8.7°
